Location: Namasale
(1.5000°N, 32.6167°E)
Time: 18:33:35
(UTC+00:00)

Courier 1B - Pass Details

Date: 27 April 2021
Orbit: 962 x 1209 km, 28.3° (Epoch: 09 May)

Event Time Altitude Azimuth Distance (km) Brightness Sun altitude
Rises 13:09:35 0° 321° (NW) 3,654 11.2 38.5°
Reaches altitude 10° 13:12:49 10° 335° (NNW) 2,690 10.5 37.7°
Maximum altitude 13:17:50 23° 26° (NNE) 1,896 9.2 36.5°
Drops below altitude 10° 13:22:50 10° 77° (ENE) 2,693 9.5 35.3°
Sets 13:26:04 0° 91° (E) 3,660 10.0 34.5°
